TimeEST,TemperatureF,Dew PointF,Humidity,Sea Level PressureIn,VisibilityMPH,Wind Direction,Wind SpeedMPH,Gust SpeedMPH,PrecipitationIn,Events,Conditions,WindDirDegrees,DateUTC
12:02 AM,62.6,62.6,100,30.14,0.2,SE,3.5,-,N/A,Fog,Fog,140,2013-01-13 05:02:00
12:36 AM,62.6,62.6,100,30.14,0.5,South,3.5,-,N/A,Fog,Fog,170,2013-01-13 05:36:00
12:53 AM,63.0,63.0,100,30.14,0.2,South,3.5,-,N/A,Fog,Fog,170,2013-01-13 05:53:00
1:18 AM,60.8,60.8,100,30.13,0.5,SE,3.5,-,N/A,Fog,Fog,130,2013-01-13 06:18:00
1:49 AM,60.8,60.8,100,30.13,0.2,Calm,Calm,-,N/A,Fog,Fog,0,2013-01-13 06:49:00
1:53 AM,60.1,59.0,96,30.13,0.2,Calm,Calm,-,N/A,Fog,Fog,0,2013-01-13 06:53:00
2:08 AM,59.0,59.0,100,30.13,0.8,Calm,Calm,-,N/A,,Mist,0,2013-01-13 07:08:00
2:34 AM,59.0,57.2,94,30.12,0.2,Calm,Calm,-,N/A,Fog,Fog,0,2013-01-13 07:34:00
2:53 AM,59.0,57.9,96,30.12,0.2,Calm,Calm,-,N/A,Fog,Fog,0,2013-01-13 07:53:00
3:12 AM,59.0,57.2,94,30.12,0.8,Calm,Calm,-,N/A,,Mist,0,2013-01-13 08:12:00
3:17 AM,59.0,57.2,94,30.12,2.0,South,3.5,-,N/A,,Mostly Cloudy,180,2013-01-13 08:17:00
3:22 AM,60.8,59.0,94,30.12,4.0,South,3.5,-,N/A,,Scattered Clouds,180,2013-01-13 08:22:00
3:53 AM,61.0,60.1,97,30.11,10.0,South,3.5,-,0.01,,Clear,190,2013-01-13 08:53:00
4:53 AM,63.0,61.0,93,30.09,10.0,South,3.5,-,N/A,,Clear,180,2013-01-13 09:53:00
5:53 AM,64.0,61.0,90,30.11,10.0,South,3.5,-,N/A,,Clear,190,2013-01-13 10:53:00
6:15 AM,60.8,59.0,94,30.11,1.8,Calm,Calm,-,N/A,,Clear,0,2013-01-13 11:15:00
6:35 AM,60.8,59.0,94,30.12,0.8,SW,3.5,-,N/A,,Mist,230,2013-01-13 11:35:00
6:38 AM,60.8,60.8,100,30.12,1.2,SW,3.5,-,N/A,,Partly Cloudy,230,2013-01-13 11:38:00
6:41 AM,60.8,60.8,100,30.12,3.0,Calm,Calm,-,N/A,,Clear,0,2013-01-13 11:41:00
6:47 AM,60.8,60.8,100,30.13,1.8,Calm,Calm,-,N/A,,Clear,0,2013-01-13 11:47:00
6:53 AM,57.9,57.9,100,30.13,0.5,Calm,Calm,-,N/A,Fog,Fog,0,2013-01-13 11:53:00
7:00 AM,59.0,57.2,94,30.12,1.0,Calm,Calm,-,N/A,,Clear,0,2013-01-13 12:00:00
7:11 AM,57.2,57.2,100,30.13,0.8,Calm,Calm,-,N/A,,Clear,0,2013-01-13 12:11:00
7:16 AM,57.2,57.2,100,30.13,2.0,Calm,Calm,-,N/A,,Clear,0,2013-01-13 12:16:00
7:30 AM,57.2,57.2,100,30.14,0.8,Calm,Calm,-,N/A,,Mist,0,2013-01-13 12:30:00
7:38 AM,57.2,55.4,94,30.14,0.2,Calm,Calm,-,N/A,Fog,Fog,0,2013-01-13 12:38:00
7:53 AM,57.9,57.9,100,30.15,0.5,Calm,Calm,-,N/A,Fog,Fog,0,2013-01-13 12:53:00
8:02 AM,57.2,57.2,100,30.15,1.0,Calm,Calm,-,N/A,,Clear,0,2013-01-13 13:02:00
8:08 AM,59.0,59.0,100,30.15,3.0,Calm,Calm,-,N/A,,Clear,0,2013-01-13 13:08:00
8:53 AM,64.9,63.0,93,30.18,10.0,SW,3.5,-,N/A,,Scattered Clouds,230,2013-01-13 13:53:00
9:53 AM,68.0,63.0,84,30.19,10.0,SW,5.8,-,N/A,,Clear,220,2013-01-13 14:53:00
10:53 AM,71.1,63.0,75,30.18,10.0,South,4.6,-,N/A,,Clear,180,2013-01-13 15:53:00
11:53 AM,72.0,62.1,71,30.15,10.0,SSE,5.8,-,N/A,,Clear,150,2013-01-13 16:53:00
12:53 PM,70.0,62.1,76,30.12,10.0,South,6.9,-,N/A,,Clear,180,2013-01-13 17:53:00
1:53 PM,71.1,61.0,70,30.10,10.0,South,6.9,-,N/A,,Clear,170,2013-01-13 18:53:00
2:53 PM,70.0,61.0,73,30.11,10.0,South,8.1,-,N/A,,Clear,170,2013-01-13 19:53:00
3:53 PM,69.1,61.0,75,30.12,10.0,South,8.1,-,N/A,,Clear,170,2013-01-13 20:53:00
4:53 PM,68.0,61.0,78,30.13,10.0,South,8.1,-,N/A,,Clear,170,2013-01-13 21:53:00
5:53 PM,64.0,61.0,90,30.13,10.0,Variable,5.8,-,N/A,,Clear,0,2013-01-13 22:53:00
6:53 PM,64.0,61.0,90,30.12,10.0,SSE,8.1,-,N/A,,Clear,150,2013-01-13 23:53:00
7:53 PM,63.0,61.0,93,30.12,10.0,SSE,9.2,-,N/A,,Clear,150,2013-01-14 00:53:00
8:53 PM,63.0,61.0,93,30.13,10.0,South,4.6,-,N/A,,Clear,170,2013-01-14 01:53:00
9:53 PM,63.0,62.1,97,30.14,6.0,South,4.6,-,N/A,,Scattered Clouds,170,2013-01-14 02:53:00
9:57 PM,62.6,62.6,100,30.14,6.0,Calm,Calm,-,N/A,,Mostly Cloudy,0,2013-01-14 02:57:00
10:29 PM,62.6,62.6,100,30.15,10.0,Calm,Calm,-,N/A,,Scattered Clouds,0,2013-01-14 03:29:00
10:53 PM,64.0,63.0,96,30.15,10.0,South,4.6,-,N/A,,Mostly Cloudy,180,2013-01-14 03:53:00
11:53 PM,66.0,62.1,87,30.16,10.0,SSW,3.5,-,N/A,,Mostly Cloudy,200,2013-01-14 04:53:00